Location: American Medical Response
(33.3472°N, 96.5511°W)
Time: 08:48:23
(UTC+00:00)

DELTA 2 R/B (1) - Pass Details

Date: 08 December 2021
Orbit: 791 x 802 km, 39.6° (Epoch: 25 January)

Event Time Altitude Azimuth Distance (km) Brightness Sun altitude
Exits shadow 12:12:00 19° 301° (WNW) 1,824 4.8 -13.5°
Maximum altitude 12:15:47 47° 8° (N) 1,038 4.1 -12.8°
Drops below altitude 10° 12:21:07 10° 82° (E) 2,348 7.1 -11.7°
Sets 12:23:41 0° 88° (E) 3,278 8.2 -11.2°
